星链-34783(STARLINK-34783)

导读

STARLINK-34783是美国于2025年11月6日发射的星链卫星,星链项目是美国太空探索技术公司打造的低轨卫星互联网星座,旨在为全球提供高速互联网服务。该卫星入轨后将提升星链网络覆盖与服务能力,进一步推进星座组网建设,助力全球互联布局。

基本信息
目录编号:
66337
目录名称:
STARLINK-34783
国际标识:
2025-253U
轨道中心:
EARTH
卫星名称:
星链-34783
卫星全名:
星链-34783(STARLINK-34783)
卫星状态:
在轨 (已飞行302 天)
发射日期:
2025-11-06 UTC
国别 :
美国 (US)
星等 :
--
轨道信息
数据来源 国际轨道数据
星历时间: 2026-09-04T11:44:47+0800
12小时前
查看轨道信息
半长轴: 6861.17km
偏心率: 0.0001204
轨道倾角: 43.004°
近地点辐角 275.470°
升交点赤经 285.054°
平近点角 84.601°
近地点: 482.206km
远地点: 483.86km
周期: 94.266分钟
每日圈数: 15.275856
详细信息
固有亮度:
5
最大亮度:
2.5
卫星平台:
Starlink V1.0
覆盖范围:
全球
运营商:
太空探索技术公司
运营商所在国:
美国
制造商(研发单位):
太空探索技术公司
制造商所在国:
美国
使用方式:
暂无
卫星简介
Starlink 计划是 SpaceX 推出的全球卫星互联网项目,通过发射低轨道卫星,为全球尤其是偏远地区提供高速、低延迟的互联网服务。自 2019 年起,Starlink 已部署数千颗卫星,旨在缩小全球数字鸿沟,推动互联网普及。该项目还为军事、航空等行业提供通信支持,带来广泛经济效益。
2D轨道图
3D轨道图
轨道高度分析图
轨道倾角分析图
轨道综合分析图
查看轨道综合分析图
交会数据列表
事件ID 空间交会对象 最接近时刻(TCA) 交会距离 交会风险概率(CRP) 交会风险指数(CRI) 操作
CDM_260906-094605-870106-633721
2026-09-06T
09:46:12+0000
0.378 km
远距离
3.500958E-4 高风险 0.86
CDM_260905-200806-443606-633721
2026-09-05T
20:08:08+0000
2.318 km
极远距离
1.342624E-6 低风险 0.38